Regional Weather Roundup
Issued by NWS

Home | Current Version | Previous Version | Graphics & Text | Print | Product List | Glossary On
Versions: 1 2 3 4 5 6 7 8 9 10 11 12 13 14 15 16 17 18 19 20 21 22 23 24 25 26 27 28 29 30 31 32 33 34 35 36 37 38 39 40 41 42 43 44 45 46 47 48 49 50
000
ASUS43 KFSD 270110
RWRSD

WEATHER ROUNDUP FOR SOUTH DAKOTA
NATIONAL WEATHER SERVICE SIOUX FALLS SD
800 PM CDT SUN APR 26 2015

NOTE: "FAIR" INDICATES FEW OR NO CLOUDS BELOW 12,000 FEET WITH NO
SIGNIFICANT WEATHER AND/OR OBSTRUCTIONS TO VISIBILITY.


SDZ001>005-009-010-012>017-270200-
NORTHWEST AND NORTH CENTRAL SOUTH DAKOTA

CITY           SKY/WX    TMP DP  RH WIND       PRES   REMARKS
BUFFALO          N/A     47  47 100 NE16      30.02R
FAITH            N/A     58  38  47 SE8       30.06R
MOBRIDGE       CLOUDY    61  36  39 E6        30.04R
$$

SDZ012>016-024>037-041>051-057-063-072>074-270200-
SOUTHWEST AND SOUTH CENTRAL SOUTH DAKOTA

CITY           SKY/WX    TMP DP  RH WIND       PRES   REMARKS
RAPID CTY ARPT CLOUDY    50  46  86 CALM      30.07R
PIERRE         CLOUDY    59  34  39 E7        30.04R
CUSTER         CLOUDY    40  38  93 E8        30.07R
ELLSWORTH AFB  CLOUDY    50  47  88 SW3       30.06
PHILIP         CLOUDY    59  38  45 S9        30.05R
PINE RIDGE     CLOUDY    50  37  61 SE10      30.05R
SPEARFISH      LGT RAIN  46  46 100 E7        30.08R
WINNER         FAIR      61  31  32 E9        30.05R
$$

SDZ004>011-016>023-039-040-270200-
NORTHEAST SOUTH DAKOTA

CITY           SKY/WX    TMP DP  RH WIND       PRES   REMARKS
ABERDEEN       CLEAR     63  32  31 E8        30.07S
WATERTOWN      CLEAR     59  28  30 E9        30.09R
BROOKINGS      CLEAR     61  28  29 NE8       30.08R
SISSETON         N/A     60  26  27 E7        30.09R
$$

SDZ017-020-022-023-036>040-048>070-270200-
SOUTHEAST SOUTH DAKOTA

CITY           SKY/WX    TMP DP  RH WIND       PRES   REMARKS
SIOUX FALLS    PTCLDY    60  34  37 N10       30.05R
HURON          CLEAR     61  33  35 E8        30.05R
CHAMBERLAIN    MOCLDY    57  32  39 SE5       30.05S
MITCHELL       CLEAR     60  39  45 E7        30.05S
YANKTON        CLEAR     63  30  29 E3        30.02R
$$

ABBREVIATIONS USED IN REMARKS
   TC - TEMPERATURE IN CELSIUS
  WCI - WIND CHILL INDEX
   HX - HEAT INDEX
  VSB - VISIBILITY



USA.gov is the U.S. government's official web portal to all federal, state and local government web resources and services.